EW6534 Weather Reports


Display with metric or nautical units.
time (UTC)temp
F
wind
direction
speed
MPH
gust
MPH
rain 1hr
in
rain 24hr
in
rain mn
in
humidity
%
barometer
mb
20260903051503 73 155 1.0 2.0 0.00 0.00 0.00 90 1014.0
20260903050101 73 155 0.0 0.0 0.00 0.00 0.00 90 1014.0
20260903044601 73 155 0.0 1.0 0.00 0.00 0.00 90 1013.7
20260903043052 73 155 0.0 1.0 0.00 0.00 0.00 90 1013.7
20260903041548 73 155 0.0 0.0 0.00 0.00 0.00 90 1013.6
20260903040044 73 155 0.0 0.0 0.00 0.00 0.00 90 1013.7
20260903034544 73 155 0.0 0.0 0.00 0.00 0.00 90 1013.7
20260903033043 74 155 0.0 0.0 0.00 0.00 0.00 90 1013.8
20260903031543 74 155 0.0 0.0 0.00 0.00 0.00 89 1013.9
20260903030042 74 155 0.0 1.0 0.00 0.00 0.00 89 1014.1
20260903024545 74 155 0.0 0.0 0.00 0.00 0.00 90 1014.1
20260903023041 74 155 0.0 0.0 0.00 0.00 0.00 89 1014.2
20260903021641 74 155 0.0 2.0 0.00 0.00 0.00 89 1014.2
20260903020040 75 155 0.0 1.0 0.00 0.00 0.00 89 1014.2
20260903014547 75 155 0.0 0.0 0.00 0.00 0.00 89 1014.2
20260903013039 76 155 0.0 0.0 0.00 0.00 0.00 88 1014.1
20260903011538 76 155 0.0 1.0 0.00 0.00 0.00 87 1014.0
20260903010037 77 155 0.0 1.0 0.00 0.00 0.00 87 1013.8
20260903004539 78 155 0.0 0.0 0.00 0.00 0.00 85 1013.6
20260903003036 80 155 1.0 2.0 0.00 0.00 0.00 82 1013.5
20260903001536 81 155 0.0 0.0 0.00 0.00 0.00 79 1013.5
20260903000036 83 155 0.0 1.0 0.00 0.00 0.00 77 1013.5
20260902234536 85 155 0.0 2.0 0.00 0.00 0.00 74 1013.4
20260902233034 86 155 0.0 3.0 0.00 0.00 0.00 71 1013.4
20260902231533 88 155 2.0 5.0 0.00 0.00 0.00 67 1013.5
20260902230032 89 157 3.0 5.0 0.00 0.00 0.00 65 1013.6
20260902224533 89 157 4.0 7.0 0.00 0.00 0.00 62 1013.5
20260902223032 90 196 5.0 10.0 0.00 0.00 0.00 59 1013.5
20260902221529 90 202 5.0 10.0 0.00 0.00 0.00 58 1013.6
20260902220028 90 207 6.0 11.0 0.00 0.00 0.00 58 1013.7
20260902214530 90 193 7.0 13.0 0.00 0.00 0.00 57 1013.8
20260902213030 91 199 7.0 11.0 0.00 0.00 0.00 57 1013.8
20260902211524 91 207 8.0 11.0 0.00 0.00 0.00 57 1013.9
20260902210039 91 192 6.0 10.0 0.00 0.00 0.00 58 1013.9
20260902204522 91 249 6.0 11.0 0.00 0.00 0.00 56 1014.1
20260902203021 91 214 6.0 10.0 0.00 0.00 0.00 57 1014.3
20260902201519 91 177 6.0 13.0 0.00 0.00 0.00 59 1014.3
20260902200023 91 165 8.0 12.0 0.00 0.00 0.00 58 1014.4
20260902194517 91 194 9.0 13.0 0.00 0.00 0.00 59 1014.7
20260902193014 90 230 5.0 10.0 0.00 0.00 0.00 60 1014.8
20260902191514 91 232 2.0 11.0 0.00 0.00 0.00 59 1015.0
20260902190011 91 167 7.0 13.0 0.00 0.00 0.00 58 1015.1
20260902184511 91 192 9.0 12.0 0.00 0.00 0.00 57 1015.2
20260902183009 91 205 7.0 15.0 0.00 0.00 0.00 62 1015.3
20260902181507 90 212 5.0 10.0 0.00 0.00 0.00 62 1015.4
20260902180007 90 181 6.0 12.0 0.00 0.00 0.00 64 1015.7
20260902174502 90 205 9.0 11.0 0.00 0.00 0.00 59 1015.5
20260902173100 90 166 7.0 11.0 0.00 0.00 0.00 64 1015.8
20260902171601 90 186 7.0 12.0 0.00 0.00 0.00 62 1015.8
20260902170055 89 241 6.0 13.0 0.00 0.00 0.00 63 1015.9
20260902164552 89 182 7.0 11.0 0.00 0.00 0.00 66 1016.0
20260902163055 88 209 5.0 8.0 0.00 0.00 0.00 67 1016.2
20260902161544 88 166 5.0 10.0 0.00 0.00 0.00 67 1016.3
20260902160040 87 267 2.0 9.0 0.00 0.00 0.00 67 1016.4
20260902154535 87 232 5.0 10.0 0.00 0.00 0.00 67 1016.4
20260902153032 86 203 4.0 8.0 0.00 0.00 0.00 70 1016.5
20260902151528 86 205 6.0 10.0 0.00 0.00 0.00 69 1016.5
20260902150024 85 196 4.0 8.0 0.00 0.00 0.00 72 1016.5
20260902144531 84 223 5.0 9.0 0.00 0.00 0.00 73 1016.6
20260902143013 83 229 6.0 10.0 0.00 0.00 0.00 73 1016.5
20260902141511 83 184 5.0 10.0 0.00 0.00 0.00 75 1016.4
20260902140006 82 176 5.0 9.0 0.00 0.00 0.00 76 1016.5
20260902134502 81 211 5.0 11.0 0.00 0.00 0.00 79 1016.4
20260902133105 80 210 5.0 9.0 0.00 0.00 0.00 80 1016.4
20260902131551 79 167 8.0 10.0 0.00 0.00 0.00 81 1016.4
20260902130051 78 174 6.0 12.0 0.00 0.00 0.00 84 1016.3
20260902124543 76 167 4.0 8.0 0.00 0.00 0.00 87 1016.3
20260902123038 75 183 3.0 6.0 0.00 0.00 0.00 89 1016.1
20260902121533 73 193 4.0 6.0 0.00 0.00 0.00 91 1016.1
20260902120031 72 105 1.0 3.0 0.00 0.00 0.00 94 1016.1
20260902114525 70 173 1.0 4.0 0.00 0.01 0.00 96 1016.0
20260902113021 69 170 0.0 0.0 0.00 0.01 0.00 95 1015.8
20260902111518 69 170 0.0 0.0 0.00 0.01 0.00 95 1015.6
20260902110017 69 170 0.0 2.0 0.00 0.01 0.00 95 1015.7
20260902104519 69 170 0.0 1.0 0.00 0.01 0.00 95 1015.7
20260902103015 69 170 0.0 1.0 0.00 0.01 0.00 94 1015.7
20260902101515 69 170 0.0 0.0 0.00 0.01 0.00 94 1015.6
20260902100013 69 170 0.0 0.0 0.00 0.01 0.00 94 1015.7
20260902094511 69 170 0.0 1.0 0.00 0.01 0.00 93 1015.6
20260902093008 69 170 0.0 0.0 0.00 0.01 0.00 93 1015.6
20260902091517 70 170 0.0 0.0 0.00 0.01 0.00 93 1015.5
20260902090005 70 170 0.0 0.0 0.00 0.01 0.00 91 1015.4
20260902084501 71 170 0.0 0.0 0.00 0.01 0.00 90 1015.4
20260902083059 72 170 0.0 0.0 0.00 0.01 0.00 91 1015.3
20260902081559 72 170 0.0 0.0 0.00 0.01 0.00 91 1015.2
20260902080112 72 170 0.0 1.0 0.00 0.01 0.00 90 1015.0
20260902074557 72 170 1.0 5.0 0.00 0.01 0.00 91 1014.9
20260902073106 71 166 3.0 4.0 0.00 0.01 0.00 92 1014.8
20260902071609 71 225 0.0 1.0 0.00 0.01 0.00 91 1014.8
20260902070053 72 225 1.0 2.0 0.00 0.01 0.00 91 1014.7
20260902064552 72 171 0.0 2.0 0.00 0.01 0.00 91 1014.7
20260902063051 71 171 1.0 3.0 0.00 0.01 0.00 91 1014.7
20260902061605 71 166 0.0 2.0 0.00 0.01 0.00 91 1014.7
20260902060048 71 166 2.0 5.0 0.00 0.01 0.00 92 1014.7
20260902054548 71 147 0.0 1.0 0.00 0.01 0.00 92 1014.8
20260902053049 71 147 0.0 0.0 0.00 0.01 0.00 92 1014.9